Weather History for LKPR - September, 2011

Change the Weather History Date:

Tuesday, September 13, 2011

  Actual Average Record
Temperature  
Mean Temperature 64 °F -  
Max Temperature 73 °F 62 °F 78 °F (1999)
Min Temperature 54 °F 44 °F 41 °F (2002)
Degree Days  
Heating Degree Days 2    
Growing Degree Days 14 (Base 50)    
Moisture  
Dew Point 54 °F    
Average Humidity 68    
Maximum Humidity 82    
Minimum Humidity 55    
Precipitation  
Precipitation 0.00 in 0.05 in - ()
Sea Level Pressure  
Sea Level Pressure 29.96 in    
Wind  
Wind Speed 9 mph ()    
Max Wind Speed 18 mph    
Max Gust Speed 26 mph    
Visibility 6.2 miles    
Events      
Averages and records for this station are not official NWS values.
T = Trace of Precipitation, MM = Missing Value Source: Averaged Metar Reports

Daily Weather History Graph

Daily Weather History Graph

Search for Another Location

Airport or City:

Trip Planner

Search our weather history database for the weather conditions in past years. The results will help you decide how hot, cold, wet, or windy it might be!

Date:

Astronomy

Sep. 13, 2011 Rise Set
Actual Time 6:35 AM CEST 7:22 PM CEST
Civil Twilight 6:02 AM CEST 7:54 PM CEST
Nautical Twilight 5:22 AM CEST 8:33 PM CEST
Astronomical Twilight 4:41 AM CEST 9:15 PM CEST
Moon 7:14 PM CEST (9/13) 7:45 AM CEST (9/13)
Length of Visible Light 13h 52m
Length of Day
12h 47m
Full, 99% of the Moon is Illuminated
Sep 13
Full
Sep 20
Last Quarter
Sep 27
New
Oct 4
First Quarter
Oct 12
Full

Hourly Weather History & Observations

Time (CEST) Temp. Dew Point Humidity Pressure Visibility Wind Dir Wind Speed Gust Speed Precip Events Conditions
12:00 AM 60.8 °F 50.0 °F 68% 29.98 in - South 6.9 mph - N/A   Clear
12:30 AM 59.0 °F 50.0 °F 72% 29.98 in - South 3.5 mph - N/A   Clear
1:00 AM 57.2 °F 50.0 °F 77% 29.98 in - South 3.5 mph - N/A   Clear
1:30 AM 57.2 °F 48.2 °F 72% 29.98 in - Variable 2.3 mph - N/A   Clear
2:00 AM 60 °F 49 °F 59% 29.97 in 47 mi WSW 8.9 mph - -  
2:00 AM 59.0 °F 50.0 °F 72% 29.98 in - WSW 5.8 mph - N/A   Clear
2:30 AM 57.2 °F 48.2 °F 72% 29.98 in - SSW 6.9 mph - N/A   Clear
3:00 AM 57.2 °F 48.2 °F 72% 29.98 in - SSW 8.1 mph - N/A   Clear
3:30 AM 57.2 °F 48.2 °F 72% 29.98 in - South 8.1 mph - N/A   Clear
4:00 AM 57.2 °F 48.2 °F 72% 29.98 in - South 10.4 mph - N/A   Clear
4:30 AM 57.2 °F 48.2 °F 72% 29.98 in - SSW 10.4 mph - N/A   Clear
5:00 AM 57.2 °F 48.2 °F 72% 29.98 in - SSW 10.4 mph - N/A   Clear
5:30 AM 57.2 °F 48.2 °F 72% 29.98 in - South 9.2 mph - N/A   Clear
6:00 AM 57.2 °F 50.0 °F 77% 29.98 in - SSW 9.2 mph - N/A   Clear
6:30 AM 57.2 °F 50.0 °F 77% 29.98 in - SSW 8.1 mph - N/A   Clear
7:00 AM 57.2 °F 50.0 °F 77% 29.98 in - SW 9.2 mph - N/A   Clear
7:30 AM 57.2 °F 51.8 °F 82% 29.98 in - SSW 8.1 mph - N/A   Clear
8:00 AM 60 °F 53 °F 69% 29.97 in 44 mi SW 8.9 mph - -   Scattered Clouds
8:00 AM 60.8 °F 51.8 °F 72% 29.98 in - SSW 9.2 mph - N/A   Clear
8:30 AM 62.6 °F 53.6 °F 72% 29.98 in - SW 8.1 mph - N/A   Clear
9:00 AM 64.4 °F 55.4 °F 73% 29.98 in - SW 11.5 mph - N/A   Clear
9:30 AM 66.2 °F 55.4 °F 68% 29.98 in 6.2 mi WSW 13.8 mph - N/A   Partly Cloudy
10:00 AM 68.0 °F 55.4 °F 64% 29.98 in 6.2 mi WSW 15.0 mph - N/A   Partly Cloudy
10:30 AM 68.0 °F 55.4 °F 64% 29.98 in 6.2 mi WSW 17.3 mph - N/A   Mostly Cloudy
11:00 AM 66.2 °F 55.4 °F 68% 29.98 in 6.2 mi WSW 15.0 mph 26.5 mph N/A   Mostly Cloudy
11:30 AM 68.0 °F 55.4 °F 64% 29.98 in 6.2 mi SW 13.8 mph - N/A   Mostly Cloudy
12:00 PM 68.0 °F 55.4 °F 64% 29.98 in 6.2 mi WSW 15.0 mph - N/A   Mostly Cloudy
12:30 PM 68.0 °F 57.2 °F 68% 29.98 in 6.2 mi WSW 12.7 mph - N/A   Mostly Cloudy
1:00 PM 68.0 °F 57.2 °F 68% 29.95 in 6.2 mi WSW 12.7 mph - N/A   Mostly Cloudy
1:30 PM 68.0 °F 57.2 °F 68% 29.95 in 6.2 mi SW 15.0 mph - N/A   Mostly Cloudy
2:00 PM 69 °F 57 °F 57% 29.93 in 44 mi WSW 15.7 mph - -   Mostly Cloudy
2:00 PM 69.8 °F 57.2 °F 64% 29.95 in 6.2 mi WSW 15.0 mph - N/A   Mostly Cloudy
2:30 PM 69.8 °F 57.2 °F 64% 29.95 in 6.2 mi SW 15.0 mph - N/A   Mostly Cloudy
3:00 PM 71.6 °F 59.0 °F 64% 29.95 in 6.2 mi WSW 15.0 mph - N/A   Scattered Clouds
3:30 PM 71.6 °F 57.2 °F 60% 29.95 in 6.2 mi WSW 16.1 mph - N/A   Scattered Clouds
4:00 PM 71.6 °F 59.0 °F 64% 29.95 in 6.2 mi West 17.3 mph - N/A   Partly Cloudy
4:30 PM 71.6 °F 57.2 °F 60% 29.92 in 6.2 mi WSW 17.3 mph - N/A   Partly Cloudy
5:00 PM 73.4 °F 57.2 °F 57% 29.92 in 6.2 mi WSW 15.0 mph - N/A   Partly Cloudy
5:30 PM 71.6 °F 55.4 °F 57% 29.92 in 6.2 mi WSW 18.4 mph - N/A   Partly Cloudy
6:00 PM 71.6 °F 55.4 °F 57% 29.92 in 6.2 mi West 18.4 mph - N/A   Partly Cloudy
6:30 PM 68.0 °F 53.6 °F 60% 29.92 in 6.2 mi WSW 12.7 mph - N/A   Partly Cloudy
7:00 PM 66.2 °F 53.6 °F 64% 29.92 in - SW 9.2 mph - N/A   Clear
7:30 PM 68.0 °F 53.6 °F 60% 29.92 in 6.2 mi SW 9.2 mph - N/A   Scattered Clouds
8:00 PM 66 °F 54 °F 55% 29.91 in 44 mi WSW 8.9 mph - -   Partly Cloudy
8:00 PM 66.2 °F 53.6 °F 64% 29.92 in - SW 9.2 mph - N/A   Clear
8:30 PM 64.4 °F 55.4 °F 73% 29.92 in - SW 6.9 mph - N/A   Clear
9:00 PM 66.2 °F 55.4 °F 68% 29.95 in - SSW 8.1 mph - N/A   Clear
9:30 PM 64.4 °F 55.4 °F 73% 29.95 in 6.2 mi SSW 6.9 mph - N/A   Mostly Cloudy
10:00 PM 66.2 °F 55.4 °F 68% 29.95 in 6.2 mi South 8.1 mph - N/A   Scattered Clouds
10:30 PM 64.4 °F 55.4 °F 73% 29.95 in 6.2 mi SSW 8.1 mph - N/A   Mostly Cloudy
11:00 PM 64.4 °F 55.4 °F 73% 29.92 in 6.2 mi SSW 8.1 mph - N/A   Partly Cloudy
11:30 PM 66.2 °F 57.2 °F 73% 29.95 in 6.2 mi WSW 13.8 mph - N/A   Mostly Cloudy